SWR303C LSZH-LHBP

Flight info

Callsign SWR303C
Flight time N/A
Altitude 33000
Route DEGES Z2 XEBIX/N0433F350 Z2 TUNUM Z209 BIRGI DCT SETAL DCT GOTAR DCT SIRDU DCT OGVUN DCT VAJDI
Aircraft A20N/M-SDE2E3FGIJ1RWXY/LB1

Departure

Time 2026-05-06 18:10
Airport Zürich Airport (LSZH)

Arrival

Time N/A
Airport Budapest Liszt Ferenc International Airport (LHBP)
Time Latitude Longitude Altitude Speed Heading
2026-05-06 17:53 47.45584 8.55753 1401 ft 0 kts
2026-05-06 17:59 47.45583 8.55752 1396 ft 0 kts
2026-05-06 17:59 47.45544 8.55747 1404 ft 9 kts
2026-05-06 18:00 47.45499 8.55724 1405 ft 4 kts 22°
2026-05-06 18:00 47.45496 8.55722 1405 ft 0 kts 21°
2026-05-06 18:02 47.45512 8.55730 1396 ft 0 kts 21°
2026-05-06 18:02 47.45516 8.55733 1396 ft 1 kts 21°
2026-05-06 18:02 47.45518 8.55734 1406 ft 0 kts 25°
2026-05-06 18:03 47.45521 8.55737 1406 ft 3 kts 29°
2026-05-06 18:03 47.45523 8.55754 1407 ft 2 kts 94°
2026-05-06 18:03 47.45508 8.55776 1400 ft 5 kts 125°
2026-05-06 18:03 47.45504 8.55806 1404 ft 0 kts 95°
2026-05-06 18:05 47.45504 8.55808 1404 ft 1 kts 95°
2026-05-06 18:05 47.45502 8.55837 1405 ft 5 kts 96°
2026-05-06 18:05 47.45497 8.55908 1396 ft 9 kts 96°
2026-05-06 18:05 47.45489 8.56020 1404 ft 13 kts 96°
2026-05-06 18:06 47.45478 8.56168 1396 ft 16 kts 96°
2026-05-06 18:06 47.45505 8.56276 1399 ft 11 kts 48°
2026-05-06 18:06 47.45565 8.56373 1396 ft 11 kts 48°
2026-05-06 18:06 47.45592 8.56493 1396 ft 14 kts 93°
2026-05-06 18:07 47.45583 8.56657 1397 ft 17 kts 95°
2026-05-06 18:07 47.45570 8.56828 1397 ft 16 kts 97°
2026-05-06 18:07 47.45563 8.56923 1397 ft 3 kts 96°
2026-05-06 18:07 47.45562 8.56970 1397 ft 6 kts 80°
2026-05-06 18:08 47.45575 8.57002 1399 ft 3 kts 52°
2026-05-06 18:08 47.45604 8.57024 1405 ft 8 kts 13°
2026-05-06 18:08 47.45654 8.57006 1398 ft 7 kts 317°
2026-05-06 18:08 47.45666 8.56936 1400 ft 8 kts 275°
2026-05-06 18:09 47.45666 8.56928 1398 ft 0 kts 276°
2026-05-06 18:09 47.45671 8.56867 1398 ft 26 kts 276°
2026-05-06 18:09 47.45716 8.56236 1404 ft 94 kts 277°
2026-05-06 18:09 47.45798 8.55002 1398 ft 144 kts 274°
2026-05-06 18:10 47.45909 8.53500 1974 ft 143 kts 277°
2026-05-06 18:10 47.46062 8.52069 2764 ft 139 kts 279°
2026-05-06 18:10 47.46252 8.50675 3332 ft 142 kts 279°
2026-05-06 18:10 47.46442 8.49209 3760 ft 152 kts 276°
2026-05-06 18:11 47.46328 8.47629 4281 ft 161 kts 249°
2026-05-06 18:11 47.45938 8.46641 4701 ft 171 kts 233°
2026-05-06 18:11 47.44664 8.45038 5531 ft 193 kts 219°
2026-05-06 18:11 47.43603 8.43739 6169 ft 205 kts 234°
2026-05-06 18:12 47.43009 8.41842 7080 ft 204 kts 255°
2026-05-06 18:12 47.42726 8.39800 8140 ft 202 kts 259°
2026-05-06 18:12 47.42420 8.37776 9135 ft 203 kts 244°
2026-05-06 18:12 47.41493 8.36208 9975 ft 210 kts 212°
2026-05-06 18:13 47.40065 8.35674 10799 ft 220 kts 180°
2026-05-06 18:13 47.38592 8.36410 11614 ft 233 kts 149°
2026-05-06 18:13 47.37526 8.38278 12406 ft 248 kts 117°
2026-05-06 18:13 47.37211 8.40814 13214 ft 259 kts 87°
2026-05-06 18:14 47.37772 8.43358 13940 ft 267 kts 57°
2026-05-06 18:14 47.39012 8.45481 14514 ft 279 kts 43°
2026-05-06 18:14 47.39954 8.46795 14972 ft 282 kts 42°
2026-05-06 18:14 47.41890 8.49377 16029 ft 286 kts 41°
2026-05-06 18:15 47.43418 8.51408 16377 ft 307 kts 41°
2026-05-06 18:15 47.44921 8.53804 16605 ft 329 kts 58°
2026-05-06 18:15 47.45600 8.55853 16761 ft 342 kts 73°
2026-05-06 18:15 47.46050 8.60652 17072 ft 367 kts 89°
2026-05-06 18:16 47.46131 8.63190 17252 ft 379 kts 89°
2026-05-06 18:16 47.46237 8.67115 17947 ft 384 kts 89°
2026-05-06 18:16 47.46352 8.71072 18670 ft 387 kts 89°
2026-05-06 18:16 47.46484 8.75059 19355 ft 390 kts 89°
2026-05-06 18:17 47.46620 8.79090 19997 ft 394 kts 90°
2026-05-06 18:17 47.46514 8.83154 20558 ft 397 kts 99°
2026-05-06 18:17 47.46036 8.87165 21230 ft 398 kts 105°
2026-05-06 18:17 47.45436 8.91178 21893 ft 401 kts 105°
2026-05-06 18:18 47.44851 8.95227 22541 ft 404 kts 105°
2026-05-06 18:18 47.44271 8.99308 23166 ft 408 kts 105°
2026-05-06 18:18 47.43686 9.03421 23730 ft 412 kts 105°
2026-05-06 18:18 47.43089 9.07591 24214 ft 416 kts 106°
2026-05-06 18:19 47.42485 9.11787 24698 ft 420 kts 106°
2026-05-06 18:19 47.41911 9.16038 25154 ft 427 kts 102°
2026-05-06 18:19 47.41706 9.20396 25528 ft 438 kts 94°
2026-05-06 18:19 47.41987 9.24950 25854 ft 452 kts 84°
2026-05-06 18:20 47.42674 9.29509 26329 ft 457 kts 81°
2026-05-06 18:20 47.43384 9.34102 26812 ft 460 kts 81°
2026-05-06 18:20 47.44089 9.38733 27204 ft 464 kts 82°
2026-05-06 18:20 47.44796 9.43409 27604 ft 468 kts 82°
2026-05-06 18:21 47.45504 9.48121 27992 ft 472 kts 82°
2026-05-06 18:21 47.46218 9.52885 28365 ft 476 kts 82°
2026-05-06 18:21 47.46839 9.57695 28738 ft 476 kts 88°
2026-05-06 18:21 47.47068 9.62573 29045 ft 474 kts 95°
2026-05-06 18:22 47.46900 9.67450 29306 ft 475 kts 101°
2026-05-06 18:22 47.46618 9.72330 29688 ft 478 kts 100°
2026-05-06 18:22 47.46349 9.77189 30042 ft 481 kts 100°
2026-05-06 18:22 47.46077 9.82130 30405 ft 484 kts 100°
2026-05-06 18:23 47.45802 9.87098 30740 ft 485 kts 100°
2026-05-06 18:23 47.45523 9.92077 31089 ft 487 kts 100°
2026-05-06 18:23 47.45240 9.97070 31544 ft 487 kts 100°
2026-05-06 18:23 47.44957 10.02032 32032 ft 485 kts 100°
2026-05-06 18:24 47.44670 10.07005 32379 ft 486 kts 100°
2026-05-06 18:24 47.44379 10.11993 32747 ft 486 kts 100°
2026-05-06 18:24 47.44081 10.16957 32888 ft 483 kts 101°
2026-05-06 18:24 47.43551 10.21826 32891 ft 477 kts 107°
2026-05-06 18:25 47.42246 10.31416 32894 ft 478 kts 107°
2026-05-06 18:25 47.40954 10.40990 32875 ft 477 kts 107°
2026-05-06 18:26 47.39645 10.50619 32877 ft 480 kts 107°
2026-05-06 18:26 47.38314 10.60269 32857 ft 480 kts 107°
2026-05-06 18:27 47.36972 10.69939 32841 ft 481 kts 107°
2026-05-06 18:27 47.35623 10.79608 32844 ft 481 kts 107°
2026-05-06 18:28 47.34270 10.89249 32823 ft 479 kts 108°
2026-05-06 18:28 47.32903 10.98863 32820 ft 480 kts 108°
2026-05-06 18:29 47.31531 11.08511 32814 ft 481 kts 108°
2026-05-06 18:29 47.30160 11.18096 32814 ft 481 kts 108°
2026-05-06 18:30 47.28773 11.27734 32791 ft 481 kts 108°
2026-05-06 18:30 47.27365 11.37436 32796 ft 482 kts 108°
2026-05-06 18:31 47.26143 11.47146 32807 ft 489 kts 99°
2026-05-06 18:31 47.26200 11.52188 32805 ft 497 kts 88°
2026-05-06 18:31 47.26860 11.57149 32803 ft 505 kts 77°
2026-05-06 18:32 47.29080 11.66976 32749 ft 505 kts 75°
2026-05-06 18:32 47.31313 11.76851 32804 ft 507 kts 75°
2026-05-06 18:33 47.33500 11.86740 32804 ft 506 kts 79°
2026-05-06 18:33 47.34515 11.96856 32811 ft 493 kts 95°
2026-05-06 18:34 47.34157 12.06884 32816 ft 488 kts 102°
2026-05-06 18:34 47.33549 12.16882 32814 ft 490 kts 101°
2026-05-06 18:35 47.32961 12.26834 32811 ft 487 kts 101°
2026-05-06 18:35 47.32317 12.36806 32814 ft 488 kts 102°
2026-05-06 18:36 47.31648 12.46712 32816 ft 488 kts 102°
2026-05-06 18:36 47.30970 12.56657 32814 ft 485 kts 102°
2026-05-06 18:37 47.30283 12.66554 32824 ft 486 kts 102°
2026-05-06 18:37 47.29588 12.76410 32831 ft 487 kts 102°
2026-05-06 18:38 47.28882 12.86336 32848 ft 487 kts 102°
2026-05-06 18:38 47.28170 12.96239 32835 ft 485 kts 103°
2026-05-06 18:39 47.27454 13.06098 32835 ft 483 kts 103°
2026-05-06 18:40 47.26361 13.20840 32862 ft 484 kts 103°
2026-05-06 18:40 47.25626 13.30685 32847 ft 483 kts 103°
2026-05-06 18:41 47.24877 13.40518 32853 ft 482 kts 103°
2026-05-06 18:41 47.24121 13.50334 32861 ft 482 kts 103°
2026-05-06 18:42 47.23362 13.60129 32859 ft 482 kts 103°
2026-05-06 18:42 47.22590 13.69960 32868 ft 483 kts 103°
2026-05-06 18:43 47.21807 13.79778 32867 ft 482 kts 103°
2026-05-06 18:43 47.21022 13.89532 32849 ft 483 kts 102°
2026-05-06 18:44 47.20228 13.99349 32859 ft 483 kts 102°
2026-05-06 18:44 47.19424 14.09163 32854 ft 483 kts 102°
2026-05-06 18:45 47.18612 14.18952 32822 ft 482 kts 102°
2026-05-06 18:45 47.17782 14.28810 32845 ft 486 kts 102°
2026-05-06 18:46 47.16949 14.38658 32839 ft 486 kts 102°
2026-05-06 18:46 47.16107 14.48513 32836 ft 485 kts 102°
2026-05-06 18:47 47.15263 14.58275 32814 ft 485 kts 102°
2026-05-06 18:47 47.14396 14.68173 32836 ft 490 kts 101°
2026-05-06 18:48 47.13525 14.78068 32829 ft 487 kts 102°
2026-05-06 18:48 47.12646 14.87942 32833 ft 487 kts 102°
2026-05-06 18:49 47.11756 14.97826 32811 ft 488 kts 102°
2026-05-06 18:49 47.10870 15.07581 32853 ft 485 kts 102°
2026-05-06 18:50 47.09973 15.17394 32856 ft 485 kts 102°
2026-05-06 18:50 47.09061 15.27215 32860 ft 485 kts 102°
2026-05-06 18:51 47.08143 15.37021 32862 ft 485 kts 102°
2026-05-06 18:51 47.07218 15.46812 32871 ft 484 kts 101°
2026-05-06 18:52 47.06287 15.56586 32868 ft 484 kts 101°
2026-05-06 18:52 47.05349 15.66346 32860 ft 483 kts 101°
2026-05-06 18:53 47.04401 15.76103 32855 ft 482 kts 102°
2026-05-06 18:53 47.03452 15.85784 32844 ft 482 kts 101°
2026-05-06 18:54 47.02493 15.95499 32837 ft 482 kts 101°
2026-05-06 18:54 47.01525 16.05220 32839 ft 481 kts 101°
2026-05-06 18:55 47.00553 16.14927 32847 ft 482 kts 101°
2026-05-06 18:55 47.00638 16.24762 32843 ft 488 kts 81°
2026-05-06 18:56 47.02572 16.34246 32848 ft 490 kts 71°
2026-05-06 18:56 47.04815 16.43691 32853 ft 490 kts 72°
2026-05-06 18:57 47.07044 16.53157 32855 ft 491 kts 72°
2026-05-06 18:57 47.09260 16.62625 32520 ft 490 kts 72°
2026-05-06 18:57 47.10367 16.67367 32255 ft 490 kts 72°
2026-05-06 18:58 47.11465 16.72088 31965 ft 487 kts 72°
2026-05-06 18:58 47.12560 16.76799 31303 ft 489 kts 72°
2026-05-06 18:58 47.13643 16.81468 30614 ft 488 kts 72°
2026-05-06 18:58 47.14730 16.86166 30030 ft 484 kts 72°
2026-05-06 18:59 47.15806 16.90823 29394 ft 479 kts 72°
2026-05-06 18:59 47.16869 16.95437 28798 ft 473 kts 72°
2026-05-06 18:59 47.17920 17.00005 28226 ft 467 kts 73°
2026-05-06 18:59 47.18953 17.04503 27645 ft 462 kts 73°
2026-05-06 19:00 47.19971 17.08951 27082 ft 456 kts 73°
2026-05-06 19:00 47.20966 17.13305 26528 ft 452 kts 73°
2026-05-06 19:00 47.21961 17.17672 25954 ft 447 kts 73°
2026-05-06 19:00 47.22624 17.20586 25576 ft 444 kts 73°
2026-05-06 19:01 47.23912 17.26260 24842 ft 438 kts 73°
2026-05-06 19:01 47.24872 17.30499 24277 ft 435 kts 73°
2026-05-06 19:01 47.25828 17.34705 23703 ft 432 kts 72°
2026-05-06 19:01 47.26840 17.38847 23135 ft 428 kts 71°
2026-05-06 19:02 47.27880 17.42927 22588 ft 422 kts 71°
2026-05-06 19:02 47.28909 17.46951 22040 ft 417 kts 71°
2026-05-06 19:02 47.29918 17.50930 21507 ft 412 kts 71°
2026-05-06 19:02 47.30577 17.53546 21152 ft 409 kts 71°
2026-05-06 19:03 47.31557 17.57463 20618 ft 405 kts 71°
2026-05-06 19:03 47.32525 17.61351 20089 ft 401 kts 71°
2026-05-06 19:03 47.33789 17.66440 19394 ft 396 kts 71°
2026-05-06 19:03 47.34732 17.70246 18857 ft 394 kts 72°
2026-05-06 19:04 47.35365 17.72801 18508 ft 391 kts 72°
2026-05-06 19:04 47.36282 17.76513 17957 ft 389 kts 72°
2026-05-06 19:04 47.37202 17.80242 17447 ft 385 kts 72°
2026-05-06 19:04 47.37993 17.83985 16942 ft 378 kts 80°
2026-05-06 19:05 47.38382 17.87782 16440 ft 371 kts 89°
2026-05-06 19:05 47.38389 17.91555 15952 ft 365 kts 96°
2026-05-06 19:05 47.38299 17.95284 15461 ft 362 kts 95°
2026-05-06 19:05 47.38221 17.98989 14978 ft 360 kts 95°
2026-05-06 19:06 47.38146 18.02673 14490 ft 358 kts 96°
2026-05-06 19:06 47.38069 18.06333 14007 ft 356 kts 96°
2026-05-06 19:06 47.37990 18.09970 13514 ft 354 kts 96°
2026-05-06 19:06 47.37909 18.13582 13026 ft 351 kts 96°
2026-05-06 19:07 47.37827 18.17160 12551 ft 346 kts 96°
2026-05-06 19:07 47.37747 18.20646 12097 ft 343 kts 96°
2026-05-06 19:07 47.37666 18.24149 11635 ft 340 kts 96°